{"data":{"norad_id":65907,"epoch":"2026-09-20T07:02:11.327424Z","epoch_age_seconds":120932,"freshness":"FRESH","line1":"1 65907U 25224AB  26263.29318666  .00023203  00000+0  69543-3 0  9991","line2":"2 65907  53.1577 182.8397 0001245  96.1235 263.9910 15.34413413 54719","mean_motion":15.34413413,"eccentricity":0.0001245,"inclination_deg":53.1577,"raan_deg":182.8397,"arg_perigee_deg":96.1235,"mean_anomaly_deg":263.991,"bstar":0.00069543,"rev_number":5471,"period_min":93.846937715735,"perigee_km":461.81169458826,"apogee_km":463.51505388145,"semimajor_km":6840.8003742349,"source":"CELESTRAK","updated_at":"2026-09-21T09:00:35.761463Z"}}